Погода в Кирсе

Поиск расширенной информации на нашем сайте:

Полезная информация:

Новости сайта



02.01.2020
Опубликован Долгосрочный прогноз погоды по городам России и ближнего зарубежья на январь 2020 года.
Карты: Прогноз на январь и февраль 2020 года, Сравнение прогнозируемой аномалии приземной температуры воздуха на январь 2020 года по разным моделям.




Погода в Кирсе - сегодня

Время (UTC), дата Ветер
(°,м/с) 
Видим.   Явления Облачность Т
(°С)
Тd
(°С)
f(%) Тe
(°С)
Pmin
(гПа)
dP
(гПа)
Po
(мм)
O2
(г/м3)
Тmin Tmax R s Состояние
почвы
18 29.11.20 100 (В) 1-2{03}  4000 м  дымка{снег}  8/0 средняя 
[As trans]
-13.6 -16.3 80 -14  1050.9  -0.1  771  328           
21 29.11.20 060 (СВ) 1-2{03}  4000 м  слаб. снег  10/0 средняя 
[As op]
-13.3 -15.5 83 -13  1050.9  771  328           
00 30.11.20 060 (СВ) 1-2{03}  4000 м  слаб. снег  10/0 средняя 
[As op]
-11.4 -13.6 84 -11  1050.3  -0.4  771  325           
03 30.11.20 140 (ЮВ) 1-2{02}  4000 м  дымка{снег}  10/10 300 м 
[Sc]
-7.5 -9.3 87 -7  1049.4  -0.5  770  320  -16.5    0.0  равномерный
сухой снег
100% 
06 30.11.20 150 (ЮВ) 2-5{05}  4200 м  дымка{снег}  10/10 300 м 
[Sc]
-5.7 -7.6 86 -7  1049  -0.2  770  318           
09 30.11.20 140 (ЮВ) 1-3{06}  4000 м  дымка  10/10 300 м 
[Sc]
-4.8 -6.7 87 -4  1048.8  -0.2  770  317           
12 30.11.20 150 (ЮВ) 2-3{04}  4200 м  дымка  10/10 300 м 
[Sc]
-4.5 -6.4 87 -6  1048.1  -0.6  769  316           
15 30.11.20 150 (ЮВ) 2-2{04}  4000 м  дымка  9/9 1000 м 
[Sc]
-4.3 -6.3 86 -6  1047.5  -0.6  769  316    -4.1       
18 30.11.20 160 (Ю) 4-6{06}  4000 м  дымка  8/8 1000 м 
[Sc]
-4.6 -6.7 85 -8  1046.5  -1  768  316           
21 30.11.20 170 (Ю) 4-7{08}  4000 м  дымка  10/10 300 м 
[Sc]
-3.9 -6.2 84 -7  1045.8  -0.6  768  315           
00 01.12.20 170 (Ю) 4-8{08}  4000 м  дымка  4/4 1000 м 
[Sc]
-4.8 -7.3 83 -8  1045.5  -0.4  767  316           
03 01.12.20 170 (Ю) 4-7{08}  4000 м  дымка  ясно 
-6.1 -8.6 82 -9  1045.2  -0.4  767  317  -6.1      равномерный
сухой снег
100% 
06 01.12.20 170 (Ю) 4-7{07}  20000 м    ясно 
-7.2 -10.4 78 -11  1045.8  0.4  767  319  -7.3         
09 01.12.20 180 (Ю) 3-6{09}  20000 м    ясно 
-5.5 -10.1 70 -8  1045.1  -0.4  767  317           
12 01.12.20 180 (Ю) 4-7{07}  20000 м    ясно 
-6.1 -9.9 74 -9  1045.1  -0.1  767  317           
15 01.12.20 180 (Ю) 4-7{08}  20000 м    ясно 
-7.5 -10.5 79 -11  1044.7  -0.5  767  319    -5.1       
18 01.12.20 180 (Ю) 5-8{09}  20000 м    ясно 
-8.7 -11.2 82 -13  1044.4  -0.4  766  320           
21 01.12.20 180 (Ю) 5-8{10}  20000 м    10/10 600 м 
[Sc]
-7.3 -9.5 84 -12  1043.6  -0.7  766  318           
00 02.12.20 190 (Ю) 3-7{08}  20000 м    10/10 300 м 
[Sc]
-6.9 -8.9 86 -10  1042.8  -0.7  765  317           
03 02.12.20 210 (ЮЗ) 3-4{07}  20000 м    10/10 300 м 
[St]
-6.7 -9.3 82 -9  1041.8  -0.9  765  317  -8.8      равномерный
сухой снег
100% 
06 02.12.20 200 (Ю) 4-6{08}  20000 м    10/10 300 м 
[St]
-6.9 -9.6 81 -10  1041.5  -0.4  764  317           
09 02.12.20 200 (Ю) 3-5{07}  8000 м  слаб. ливневой снег  10/10 300 м кучево-дожд. 
[Cb cap]
-6.9 -9.7 80 -10  1041.1  -0.4  764  317           
12 02.12.20 200 (Ю) 2-4{06}  6000 м  слаб. ливневой снег  10/10 300 м кучево-дожд. 
[Cb cap]
-6.9 -9.6 81 -8  1040.5  -0.5  764  317           
15 02.12.20 220 (ЮЗ) 3-4{05}  4000 м  слаб. ливневой снег  10/10 300 м кучево-дожд. 
[Cb cap]
-6.9 -9.8 80 -10  1040.6  764  317    -6.7  0.3     
18 02.12.20 230 (ЮЗ) 2-4{05}  10 км  слаб. ливневой снег  10/10 300 м кучево-дожд. 
[Cb cap]
-6.9 -9.6 81 -8  1040.6  764  317           
Время (UTC), дата Ветер
(°,м/с) 
Видим.   Явления Облачность Т
(°С)
Тd
(°С)
f(%) Тe
(°С)
Pmin
(гПа)
dP
(гПа)
Po
(мм)
O2
(г/м3)
Тmin Tmax R s Состояние
почвы

Для получения пояснительной информации подведите курсор к названию столбца.

ПОГОДА в Кирсе - архив

Всё, что Вы хотите узнать о погоде в Кирсе - удобно и подробно!

Выберите нужную дату (начиная с 1 января 2019* года) и нажмите кнопку "Найти".
Будут отображены архивные сводки погоды по пункту Кирс, начиная с указанной даты.


Отображать данные в формате CSV (для использования в таблицах Excel)


Внимание! Наш архив погоды предназначен исключительно для личного некоммерческого использования в познавательных целях. Если Вам необходимы официальные справки о состоянии погоды (для производственных, юридических, коммерческих и т.п. целей), обращайтесь в органы Росгидромета.

*Примечание: данная дата относится к архиву по метеостанциям СССР (Россия, СНГ, Балтия).
Архив по метеостанциям Зарубежной Европы и Азии (кроме Китая) хранится 10 дней, по другим регионам земного шара (Китай, Африка, Америка, Австралия, Океания) - 1 день.

Кирс - район местоположения метеостанции


Название, широта, долгота, высота метеостанции:
Кирс 59.4°ш. 52.2°д. 169 м над ур. моря [Российская Федерация]

Дополнительная информация

В oтличие oт бoльшинства пoгoдных сайтoв мы публикуем пoдрoбную метеoинфoрмацию в детальнoм прoфессиoнальнoм фoрмате.

Характеристики температуры и влажнoсти вoздуха измеряются на высoте 2 м в тени вдали oт зданий и деревьев.
Скoрoсть ветра измеряется на высoте 10 м (на урoвне рoста челoвека скoрoсть ветра ниже в 1.5-2 раза). Если метеoстанция нахoдится в гoрoде или в лесу, тo скoрoсть ветра занижена на 2-4 м/с пo сравнению с oткрытым местoм. Скoрoсть ветра над акватoриями крупных рек и oзёр, а также на вершинах хoлмoв на 2-5 м/с выше, чем в oбычных услoвиях.
Атмoсфернoе давление в разных тoчках местнoсти мoжет значительнo oтличаться oт давления на метеoстанции, в зависимoсти oт услoвий рельефа (при пoдъёме на 10 м давление пoнижается примернo на 1 мм рт.ст.).